Location: Sandbach
(53.1410°N, 2.3660°W)
Time: 14:27:38
(UTC+00:00)

ISS - Pass Details

Date: 04 December 2021
Orbit: 413 x 422 km, 51.6° (Epoch: 18 January)

Event Time Altitude Azimuth Distance (km) Brightness Sun altitude
Rises 16:47:16 0° 275° (W) 2,387 1.2 -7.5°
Reaches altitude 10° 16:49:23 10° 271° (W) 1,519 0.2 -7.8°
Maximum altitude 16:52:44 58° 193° (SSW) 502 -3.1 -8.3°
Drops below altitude 10° 16:56:05 10° 113° (ESE) 1,510 -1.3 -8.7°
Enters shadow 16:57:14 - 110° (ESE) 1,973 -0.8 -8.9°
